Time,TemperatureF,DewpointF,PressureIn,WindDirection,WindDirectionDegrees,WindSpeedMPH,WindSpeedGustMPH,Humidity,HourlyPrecipIn,Conditions,Clouds,dailyrainin,SoftwareType,DateUTC
2013-08-01 00:02:00,59.0,35.0,-100.00,SSW,204,4.0,8.0,40,0.00,,,0.00,,2013-08-01 06:02:00,
2013-08-01 00:12:00,59.0,35.0,-100.00,SSW,204,4.0,8.0,40,0.00,,,0.00,,2013-08-01 06:12:00,
2013-08-01 00:22:00,59.0,35.0,-100.00,SSW,204,4.0,8.0,40,0.00,,,0.00,,2013-08-01 06:22:00,
2013-08-01 00:53:00,57.0,34.0,-100.00,South,189,7.0,11.0,42,0.00,,,0.00,,2013-08-01 06:53:00,
2013-08-01 01:02:00,57.0,34.0,-100.00,South,189,7.0,11.0,42,0.00,,,0.00,,2013-08-01 07:02:00,
2013-08-01 01:12:00,57.0,34.0,-100.00,South,189,7.0,11.0,42,0.00,,,0.00,,2013-08-01 07:12:00,
2013-08-01 01:23:00,57.0,34.0,-100.00,South,189,7.0,11.0,42,0.00,,,0.00,,2013-08-01 07:23:00,
2013-08-01 01:55:00,58.0,35.0,-100.00,SSE,168,11.0,15.0,42,0.00,,,0.00,,2013-08-01 07:55:00,
2013-08-01 02:05:00,58.0,35.0,-100.00,SSE,168,11.0,15.0,42,0.00,,,0.00,,2013-08-01 08:05:00,
2013-08-01 02:15:00,58.0,35.0,-100.00,SSE,168,11.0,15.0,42,0.00,,,0.00,,2013-08-01 08:15:00,
2013-08-01 02:24:00,58.0,35.0,-100.00,SSE,168,11.0,15.0,42,0.00,,,0.00,,2013-08-01 08:24:00,
2013-08-01 04:12:00,57.0,32.0,-100.00,SSW,199,7.0,12.0,39,-99.99,,,0.00,,2013-08-01 10:12:00,
2013-08-01 04:20:00,57.0,32.0,-100.00,SSW,199,7.0,12.0,39,-99.99,,,0.00,,2013-08-01 10:20:00,
2013-08-01 06:27:00,58.0,32.0,-100.00,SSW,206,8.0,12.0,37,0.00,,,0.00,,2013-08-01 12:27:00,
2013-08-01 07:05:00,58.0,32.0,-100.00,SSW,206,8.0,12.0,37,0.00,,,0.00,,2013-08-01 13:05:00,
2013-08-01 07:10:00,58.0,32.0,-100.00,SSW,206,8.0,12.0,37,0.00,,,0.00,,2013-08-01 13:10:00,
2013-08-01 07:19:00,58.0,32.0,-100.00,SSW,206,8.0,12.0,37,0.00,,,0.00,,2013-08-01 13:19:00,
2013-08-01 09:12:00,64.0,34.0,-100.00,SSW,205,6.0,12.0,32,0.00,,,0.00,,2013-08-01 15:12:00,
2013-08-01 10:27:00,65.0,37.0,-100.00,WNW,283,7.0,16.0,35,0.00,,,0.00,,2013-08-01 16:27:00,
2013-08-01 10:57:00,65.0,37.0,-100.00,WNW,283,7.0,16.0,35,0.00,,,0.00,,2013-08-01 16:57:00,
2013-08-01 11:12:00,65.0,37.0,-100.00,WNW,283,7.0,16.0,35,0.00,,,0.00,,2013-08-01 17:12:00,
2013-08-01 12:09:00,67.0,39.0,-100.00,West,273,10.0,21.0,36,0.00,,,0.00,,2013-08-01 18:09:00,
2013-08-01 12:18:00,67.0,39.0,-100.00,West,273,10.0,21.0,36,0.00,,,0.00,,2013-08-01 18:18:00,
2013-08-01 12:27:00,68.0,41.0,-100.00,WNW,285,12.0,34.0,38,0.00,,,0.00,,2013-08-01 18:27:00,
2013-08-01 13:09:00,68.0,41.0,-100.00,WNW,285,12.0,34.0,38,0.00,,,0.00,,2013-08-01 19:09:00,
2013-08-01 13:19:00,68.0,41.0,-100.00,WNW,285,12.0,34.0,38,0.00,,,0.00,,2013-08-01 19:19:00,
2013-08-01 14:18:00,66.0,39.0,-100.00,West,263,12.0,28.0,37,0.00,,,0.00,,2013-08-01 20:18:00,
2013-08-01 14:25:00,66.0,39.0,-100.00,West,263,12.0,28.0,37,0.00,,,0.00,,2013-08-01 20:25:00,
2013-08-01 15:14:00,64.0,40.0,-100.00,West,274,15.0,31.0,42,0.00,,,0.00,,2013-08-01 21:14:00,
2013-08-01 15:53:00,62.0,41.0,-100.00,WNW,296,10.0,22.0,46,0.00,,,0.00,,2013-08-01 21:53:00,
2013-08-01 16:16:00,62.0,41.0,-100.00,WNW,296,10.0,22.0,46,0.00,,,0.00,,2013-08-01 22:16:00,
2013-08-01 16:23:00,62.0,41.0,-100.00,WNW,296,10.0,22.0,46,0.00,,,0.00,,2013-08-01 22:23:00,
2013-08-01 16:59:00,60.0,41.0,-100.00,SW,219,11.0,23.0,50,0.00,,,0.00,,2013-08-01 22:59:00,
2013-08-01 17:08:00,60.0,41.0,-100.00,SW,219,11.0,23.0,50,0.00,,,0.00,,2013-08-01 23:08:00,
2013-08-01 17:25:00,60.0,41.0,-100.00,SW,219,11.0,23.0,50,0.00,,,0.00,,2013-08-01 23:25:00,
2013-08-01 18:08:00,62.0,42.0,-100.00,SW,218,7.0,20.0,47,0.00,,,0.00,,2013-08-02 00:08:00,
2013-08-01 18:17:00,62.0,42.0,-100.00,SW,218,7.0,20.0,47,0.00,,,0.00,,2013-08-02 00:17:00,
2013-08-01 18:26:00,62.0,42.0,-100.00,SW,218,7.0,20.0,47,0.00,,,0.00,,2013-08-02 00:26:00,
2013-08-01 19:00:00,61.0,38.0,-100.00,West,266,7.0,13.0,42,0.00,,,-99.99,,2013-08-02 01:00:00,
2013-08-01 19:16:00,61.0,38.0,-100.00,West,266,7.0,13.0,42,0.00,,,-99.99,,2013-08-02 01:16:00,
2013-08-01 20:00:00,57.0,43.0,-100.00,NNE,22,3.0,13.0,60,0.00,,,0.00,,2013-08-02 02:00:00,
2013-08-01 20:07:00,57.0,43.0,-100.00,NNE,22,3.0,13.0,60,0.00,,,0.00,,2013-08-02 02:07:00,
2013-08-01 20:15:00,57.0,43.0,-100.00,NNE,22,3.0,13.0,60,0.00,,,0.00,,2013-08-02 02:15:00,
2013-08-01 20:26:00,57.0,43.0,-100.00,NNE,22,3.0,13.0,60,0.00,,,0.00,,2013-08-02 02:26:00,
2013-08-01 20:53:00,52.0,42.0,-100.00,NE,50,4.0,10.0,68,0.00,,,0.00,,2013-08-02 02:53:00,
2013-08-01 21:08:00,52.0,42.0,-100.00,NE,50,4.0,10.0,68,0.00,,,0.00,,2013-08-02 03:08:00,
2013-08-01 21:23:00,52.0,42.0,-100.00,NE,50,4.0,10.0,68,0.00,,,0.00,,2013-08-02 03:23:00,
2013-08-01 22:00:00,50.0,42.0,-100.00,ESE,105,4.0,13.0,73,0.00,,,0.00,,2013-08-02 04:00:00,
2013-08-01 22:02:00,50.0,42.0,-100.00,ESE,105,4.0,13.0,73,0.00,,,0.00,,2013-08-02 04:02:00,
2013-08-01 22:12:00,50.0,42.0,-100.00,ESE,105,4.0,13.0,73,0.00,,,0.00,,2013-08-02 04:12:00,
2013-08-01 22:22:00,50.0,42.0,-100.00,ESE,105,4.0,13.0,73,0.00,,,0.00,,2013-08-02 04:22:00,
2013-08-01 22:53:00,52.0,39.0,-100.00,South,176,6.0,12.0,60,0.00,,,0.00,,2013-08-02 04:53:00,
2013-08-01 23:02:00,52.0,39.0,-100.00,South,176,6.0,12.0,60,0.00,,,0.00,,2013-08-02 05:02:00,
2013-08-01 23:12:00,52.0,39.0,-100.00,South,176,6.0,12.0,60,0.00,,,0.00,,2013-08-02 05:12:00,
2013-08-01 23:22:00,52.0,39.0,-100.00,South,176,6.0,12.0,60,0.00,,,0.00,,2013-08-02 05:22:00,
2013-08-01 23:53:00,50.0,40.0,-100.00,WNW,297,3.0,15.0,68,0.00,,,0.00,,2013-08-02 05:53:00,